Date String (YYYY-MM-DD hh:mm:ss) UTC,Instrument flags,absolute air pressure of the measurement (hPa),sample flow rate (lpm),inlet stack bypass flow (lpm),air temperature of the measurement (°C),ambient temperature measured by the external sensor (°C),aerosol sample conditioner tube jacket temperature (°C),OPC LED temperature (°C),internal box temperature (°C),relative humidity of the measurement (%),span deviation,mass concentration of particles derived from Lorenz-Mie calculation of OPC scattering (μg/m³),mass concentration of particles derived from Lorenz-Mie calculation of OPC scattering (μg/m³),mass concentration of particles derived from Lorenz-Mie calculation of OPC scattering (μg/m³)
DateTimeUTC,F1_M11,P_M11,Q1_M11,Q2_M11,T1_M11,T2_M11,T3_M11,T4_M11,T5_M11,U1_M11,ZSPAN_M11,X0_M11,X2_M11,X1_M11
2024-06-15 01:00:00,SystemResetWarning,0828.6,5.01,000.00,029.7,029.3,000.0,037.8,031.6,031.7,0000.4,0027.29,0008.53,0006.65
2024-06-15 01:01:00,SystemResetWarning,0828.6,5.01,000.00,029.8,029.4,000.0,037.8,031.7,031.5,0000.0,0027.64,0008.52,0006.65
2024-06-15 01:02:00,SystemResetWarning,0828.6,4.99,000.00,029.8,029.1,000.0,037.9,031.5,031.5,0000.0,0026.11,0008.50,0006.66
2024-06-15 01:03:00,SystemResetWarning,0828.6,4.98,000.00,029.6,026.9,000.0,037.9,030.5,032.3,0000.0,0026.53,0008.46,0006.64
2024-06-15 01:04:00,SystemResetWarning,0828.6,5.01,000.00,029.1,025.3,000.0,037.9,029.7,033.2,0000.0,0025.73,0008.46,0006.64
2024-06-15 01:05:00,SystemResetWarning,0828.5,5.00,000.00,028.9,025.5,000.0,037.9,029.6,033.0,0000.0,0023.95,0008.42,0006.63
2024-06-15 01:06:00,SystemResetWarning,0828.6,4.99,000.00,028.8,026.0,000.0,037.7,029.9,033.1,0000.0,0022.24,0008.40,0006.63
2024-06-15 01:07:00,SystemResetWarning,0828.6,5.01,000.00,028.8,026.5,000.0,037.6,030.1,032.8,0000.0,0021.49,0008.36,0006.63
2024-06-15 01:08:00,SystemResetWarning,0828.6,5.00,000.00,028.9,026.9,000.0,037.5,030.4,032.7,0000.0,0021.38,0008.34,0006.62
2024-06-15 01:09:00,SystemResetWarning,0828.6,5.00,000.00,028.9,027.4,000.0,037.5,030.6,032.9,0000.0,0020.25,0008.35,0006.63
2024-06-15 01:10:00,SystemResetWarning,0828.6,5.00,000.00,029.0,027.7,000.0,037.5,030.7,032.3,0000.0,0020.12,0008.42,0006.64
2024-06-15 01:11:00,SystemResetWarning,0828.6,5.00,000.00,029.1,028.0,000.0,037.5,030.8,032.1,0000.3,0019.86,0008.46,0006.64
2024-06-15 01:12:00,SystemResetWarning,0828.6,5.00,000.00,029.1,028.2,000.0,037.5,030.9,031.9,0000.4,0018.44,0008.42,0006.64
2024-06-15 01:13:00,SystemResetWarning,0828.6,5.00,000.00,029.2,028.4,000.0,037.5,031.0,032.2,0001.1,0018.66,0008.44,0006.64
2024-06-15 01:14:00,SystemResetWarning,0828.6,4.99,000.00,029.3,028.6,000.0,037.5,031.1,031.5,0001.2,0018.56,0008.42,0006.65
2024-06-15 01:15:00,SystemResetWarning,0828.6,4.99,000.00,029.4,028.8,000.0,037.5,031.2,031.4,0001.3,0019.09,0008.39,0006.63
2024-06-15 01:16:00,SystemResetWarning,0828.6,5.01,000.00,029.4,028.9,000.0,037.6,031.3,031.2,0001.0,0019.57,0008.35,0006.62
2024-06-15 01:17:00,SystemResetWarning,0828.6,5.01,000.00,029.5,029.0,000.0,037.6,031.4,031.2,0000.9,0019.50,0008.38,0006.62
2024-06-15 01:18:00,SystemResetWarning,0828.6,4.99,000.00,029.6,029.1,000.0,037.6,031.4,031.0,0001.1,0019.73,0008.35,0006.62
2024-06-15 01:19:00,SystemResetWarning,0828.6,4.98,000.00,029.6,029.2,000.0,037.7,031.5,030.7,0001.5,0018.80,0008.31,0006.61
2024-06-15 01:20:00,SystemResetWarning,0828.6,4.99,000.00,029.7,029.3,000.0,037.7,031.6,030.9,0001.1,0019.21,0008.26,0006.61
2024-06-15 01:21:00,SystemResetWarning,0828.6,5.00,000.00,029.8,029.4,000.0,037.8,031.6,030.8,0001.2,0019.41,0008.21,0006.60
2024-06-15 01:22:00,SystemResetWarning,0828.6,5.01,000.00,029.8,029.3,000.0,037.8,031.6,031.2,0001.1,0019.62,0008.20,0006.60
2024-06-15 01:23:00,SystemResetWarning,0828.6,4.98,000.00,029.7,027.6,000.0,037.9,030.8,031.4,0001.0,0020.20,0008.22,0006.60
2024-06-15 01:24:00,SystemResetWarning,0828.6,5.01,000.00,029.3,026.5,000.0,037.9,030.3,032.2,0000.5,0019.94,0008.25,0006.61
2024-06-15 01:25:00,SystemResetWarning,0828.6,5.01,000.00,029.2,026.7,000.0,037.9,030.3,032.7,0000.3,0019.56,0008.25,0006.63
2024-06-15 01:26:00,SystemResetWarning,0828.6,5.00,000.00,029.2,027.1,000.0,037.8,030.5,033.0,0000.4,0019.99,0008.26,0006.65
2024-06-15 01:27:00,SystemResetWarning,0828.6,5.00,000.00,029.2,027.5,000.0,037.7,030.7,033.0,0001.1,0020.45,0008.28,0006.68
2024-06-15 01:28:00,SystemResetWarning,0828.6,5.01,000.00,029.3,027.8,000.0,037.7,030.9,033.2,0001.3,0021.08,0008.26,0006.71
2024-06-15 01:29:00,SystemResetWarning,0828.6,5.00,000.00,029.3,028.1,000.0,037.7,031.0,033.3,0001.7,0021.85,0008.36,0006.75
2024-06-15 01:30:00,SystemResetWarning,0828.6,5.00,000.00,029.4,028.4,000.0,037.7,031.1,033.5,0001.0,0022.00,0008.44,0006.79
2024-06-15 01:31:00,SystemResetWarning,0828.6,4.99,000.00,029.4,028.6,000.0,037.7,031.2,033.5,0001.2,0022.05,0008.51,0006.83
2024-06-15 01:32:00,SystemResetWarning,0828.6,5.00,000.00,029.5,028.8,000.0,037.7,031.3,033.4,0001.6,0022.61,0008.56,0006.89
2024-06-15 01:33:00,SystemResetWarning,0828.5,5.00,000.00,029.6,028.9,000.0,037.8,031.4,033.1,0002.0,0023.82,0008.56,0006.94
2024-06-15 01:34:00,SystemResetWarning,0828.5,5.00,000.00,029.6,029.1,000.0,037.8,031.5,032.9,0001.9,0024.19,0008.60,0006.98
2024-06-15 01:35:00,SystemResetWarning,0828.6,5.00,000.00,029.7,029.2,000.0,037.8,031.5,032.6,0001.5,0024.82,0008.61,0007.00
2024-06-15 01:36:00,SystemResetWarning,0828.6,5.00,000.00,029.8,029.3,000.0,037.9,031.6,032.6,0001.9,0024.83,0008.64,0007.01
2024-06-15 01:37:00,SystemResetWarning,0828.5,5.00,000.00,029.8,029.4,000.0,037.9,031.7,032.1,0001.8,0023.98,0008.66,0007.02
2024-06-15 01:38:00,SystemResetWarning,0828.5,5.01,000.00,029.9,029.4,000.0,037.9,031.6,031.9,0001.5,0023.11,0008.66,0007.01
2024-06-15 01:39:00,SystemResetWarning,0828.4,4.99,000.00,029.7,027.7,000.0,038.0,030.8,032.0,0001.3,0022.62,0008.68,0007.00
2024-06-15 01:40:00,SystemResetWarning,0828.4,5.01,000.00,029.4,026.6,000.0,038.0,030.3,032.7,0000.9,0021.39,0008.64,0006.97
2024-06-15 01:41:00,SystemResetWarning,0828.4,5.02,000.00,029.3,026.8,000.0,038.0,030.3,032.7,0001.1,0022.21,0008.60,0006.93
2024-06-15 01:42:00,SystemResetWarning,0828.4,4.99,000.00,029.2,027.2,000.0,037.9,030.5,032.9,0001.2,0021.90,0008.57,0006.89
2024-06-15 01:43:00,SystemResetWarning,0828.4,5.00,000.00,029.3,027.5,000.0,037.8,030.8,032.7,0000.0,0021.44,0008.53,0006.86
2024-06-15 01:44:00,SystemResetWarning,0828.4,4.99,000.00,029.3,027.9,000.0,037.8,030.9,032.3,0000.1,0020.65,0008.50,0006.81
2024-06-15 01:45:00,SystemResetWarning,0828.4,5.00,000.00,029.4,028.2,000.0,037.8,031.0,032.0,0000.5,0019.78,0008.49,0006.77
2024-06-15 01:46:00,SystemResetWarning,0828.4,5.00,000.00,029.4,028.4,000.0,037.8,031.2,031.7,0001.2,0018.66,0008.38,0006.71
2024-06-15 01:47:00,SystemResetWarning,0828.4,4.99,000.00,029.5,028.6,000.0,037.8,031.3,031.8,0000.0,0018.56,0008.28,0006.65
2024-06-15 01:48:00,SystemResetWarning,0828.4,5.00,000.00,029.5,028.8,000.0,037.8,031.3,031.6,0000.0,0020.10,0008.22,0006.60
2024-06-15 01:49:00,SystemResetWarning,0828.4,5.00,000.00,029.6,028.9,000.0,037.8,031.4,031.5,0000.1,0021.06,0008.15,0006.55
2024-06-15 01:50:00,SystemResetWarning,0828.4,5.01,000.00,029.7,029.1,000.0,037.9,031.5,031.0,0001.5,0021.29,0008.08,0006.51
2024-06-15 01:51:00,SystemResetWarning,0828.3,4.99,000.00,029.7,029.2,000.0,037.9,031.5,030.8,0001.6,0022.49,0008.04,0006.47
2024-06-15 01:52:00,SystemResetWarning,0828.3,5.00,000.00,029.8,029.3,000.0,037.9,031.6,030.8,0001.5,0022.45,0008.02,0006.42
2024-06-15 01:53:00,SystemResetWarning,0828.3,5.00,000.00,029.9,029.4,000.0,037.9,031.7,030.8,0001.3,0022.32,0008.04,0006.39
2024-06-15 01:54:00,SystemResetWarning,0828.3,4.99,000.00,029.9,029.4,000.0,038.0,031.7,030.4,0000.1,0022.56,0008.01,0006.32
2024-06-15 01:55:00,SystemResetWarning,0828.2,4.99,000.00,029.7,027.5,000.0,038.1,030.8,030.7,0000.0,0022.47,0007.98,0006.27
2024-06-15 01:56:00,SystemResetWarning,0828.2,5.02,000.00,029.4,026.5,000.0,038.1,030.3,031.5,0000.0,0023.45,0007.97,0006.23
2024-06-15 01:57:00,SystemResetWarning,0828.2,5.00,000.00,029.2,026.7,000.0,038.0,030.3,031.1,0000.0,0024.34,0007.98,0006.20
2024-06-15 01:58:00,SystemResetWarning,0828.1,5.00,000.00,029.2,027.1,000.0,037.9,030.5,031.3,0000.0,0025.63,0008.00,0006.17
2024-06-15 01:59:00,SystemResetWarning,0828.1,5.00,000.00,029.3,027.5,000.0,037.8,030.7,031.1,0000.0,0024.14,0008.00,0006.13
